Location: Ertinghausen
(51.6624°N, 9.7874°E)
Time: 12:50:50
(UTC+00:00)

Nadezhda 1 Rocket - Pass Details

Date: 23 May 2024
Orbit: 942 x 1004 km, 83.0° (Epoch: 12 June)

Event Time Altitude Azimuth Distance (km) Brightness Sun altitude
Rises 01:04:05 0° 348° (NNW) 3,743 7.9 -14.0°
Reaches altitude 10° 01:06:38 10° 346° (NNW) 2,791 7.1 -13.9°
Maximum altitude 01:12:59 66° 266° (W) 1,094 4.1 -13.4°
Enters shadow 01:18:18 15° 187° (S) 2,412 5.5 -13.0°
